Wind_Speed
69 68 67 66 65 64 62 61 60 60 60 60 60 59 58 57 56 56 56 56 56 56 57 57 57 57 57 57 57 57 56 56 55 54 53 53 53 53 51 50 48 47 47 47 46 44 43 43 43 43 41 38 37 36 35 32 30 31 30 29 25 22 21 21 23 22 20 22 21 16 14 16 14 13 16 17 17 17 17 17 16 14 13 12 12 12 11 10
73 71 70 69 68 67 65 64 63 62 62 61 60 61 60 60 58 57 56 56 56 56 57 57 57 57 57 57 57 57 57 56 55 54 54 54 54 53 52 50 49 49 50 49 49 47 46 45 45 45 43 40 40 39 37 34 33 32 32 31 27 23 24 25 25 25 23 23 24 19 15 17 15 12 16 17 16 17 18 19 18 16 14 14 13 13 13 12
76 75 74 72 71 70 68 67 66 65 64 63 62 62 61 61 61 60 59 57 57 56 57 57 57 57 57 57 57 57 57 57 56 55 55 55 54 53 52 51 50 51 52 51 50 50 48 47 46 46 44 42 42 41 39 37 36 33 34 34 27 24 27 27 27 27 25 24 25 23 18 17 16 13 15 17 16 17 20 20 18 15 13 15 16 14 14 14
80 78 77 76 74 73 71 70 69 68 67 66 65 64 63 63 62 62 61 60 59 58 57 57 57 58 57 58 57 57 57 57 56 54 54 55 54 53 53 52 52 52 53 52 51 50 49 48 48 47 46 44 43 44 41 39 38 36 37 36 28 27 31 29 29 31 29 27 26 26 23 19 19 16 15 17 17 18 21 19 16 15 14 17 18 15 16 15
83 82 80 79 78 76 75 73 72 71 70 69 67 66 66 65 64 64 63 62 61 60 59 58 58 58 58 58 58 58 58 57 56 54 54 54 53 52 52 52 52 53 54 53 52 51 50 49 49 48 48 46 45 45 44 41 39 39 40 38 32 32 33 30 31 34 32 29 27 26 27 24 22 19 17 18 17 20 22 17 17 18 15 17 19 17 17 17
84 84 83 82 81 79 78 76 75 74 73 72 70 69 68 68 67 66 65 64 63 63 62 61 60 59 58 58 58 59 59 58 58 55 53 53 52 51 51 51 52 53 53 53 52 52 50 50 50 50 49 47 46 46 45 43 42 43 42 40 36 35 35 32 33 37 34 32 29 28 30 28 24 21 21 20 17 21 23 18 18 20 16 17 20 20 19 18
86 86 85 85 84 82 81 79 78 77 75 74 73 71 70 70 69 69 68 67 66 65 64 63 62 61 60 60 59 59 59 58 59 56 52 52 51 50 50 50 51 52 53 53 52 52 51 51 51 51 50 49 47 47 46 45 45 45 44 42 39 38 37 35 35 39 38 35 32 31 32 30 26 24 25 22 19 20 23 22 20 20 18 17 19 21 21 20
88 87 86 86 86 85 84 82 81 79 78 77 76 74 73 72 71 71 70 69 69 68 67 66 65 64 63 62 61 61 59 56 58 57 53 52 52 51 50 50 50 51 52 52 52 52 51 52 52 52 52 51 49 48 47 47 48 47 45 43 41 41 39 37 37 41 41 37 35 34 34 32 28 28 27 23 21 21 23 25 23 22 21 19 19 21 23 22
89 88 88 87 87 87 86 85 83 82 81 79 78 77 75 75 73 72 72 71 71 71 70 69 68 67 66 65 64 63 60 56 58 59 55 53 53 51 50 49 49 50 51 51 51 50 50 51 51 52 52 52 51 50 50 50 50 49 46 44 44 43 41 40 40 43 44 40 38 37 36 34 31 32 30 24 23 24 25 27 24 24 23 21 19 20 24 24
91 90 89 88 87 87 87 87 86 84 83 82 81 79 78 77 76 75 73 73 73 72 72 72 71 70 69 67 66 64 61 58 59 60 57 54 54 52 51 50 49 49 50 50 50 50 49 49 49 51 53 53 53 52 52 52 51 50 49 47 46 45 44 43 41 43 45 42 41 41 39 36 34 36 32 24 26 26 27 28 26 26 25 23 21 19 23 25
92 91 90 89 88 88 88 88 87 86 85 83 82 81 80 78 78 77 75 75 75 74 74 74 74 73 72 70 68 65 62 61 60 61 59 56 55 53 52 50 49 49 50 49 50 49 49 49 49 51 52 52 52 52 52 52 51 51 51 50 49 47 45 44 43 44 46 45 43 43 43 40 37 40 33 25 29 30 29 30 28 28 26 25 24 21 21 24
89 92 92 91 90 89 88 88 88 88 87 85 84 83 82 80 79 78 77 77 76 76 76 76 77 76 75 73 69 66 65 65 63 62 61 58 57 55 53 52 51 50 50 50 50 50 50 50 50 50 52 52 51 51 52 52 51 50 50 50 49 48 47 46 45 46 47 47 45 46 48 45 40 40 35 29 32 34 31 31 30 29 27 27 28 25 22 23
84 88 91 93 92 90 89 88 88 88 88 87 86 84 83 82 81 80 79 78 78 78 76 77 78 78 78 75 69 68 69 68 66 63 62 61 59 58 56 54 53 52 52 51 51 51 50 50 51 50 50 52 51 52 53 51 49 49 49 50 50 50 50 47 45 46 48 48 47 49 52 49 42 39 39 34 33 36 34 31 30 30 30 28 29 29 27 24
81 83 86 90 92 92 91 89 88 88 88 88 87 86 84 83 82 81 80 79 79 78 78 78 80 80 80 76 72 72 72 70 68 64 64 64 63 61 59 57 56 55 54 54 53 52 52 51 51 50 50 51 51 51 51 49 48 49 50 51 51 51 50 45 44 46 47 48 48 52 56 51 43 40 40 37 34 37 36 32 31 32 33 31 30 31 31 29
82 81 82 85 89 92 92 91 89 88 87 88 88 87 86 84 83 83 82 81 79 79 78 77 80 83 82 78 76 75 73 72 69 66 66 66 66 64 62 60 59 58 57 56 55 54 54 54 52 52 51 51 51 51 51 49 49 49 51 51 51 52 50 44 44 45 46 46 47 53 57 52 44 40 41 40 36 37 38 34 32 33 35 35 34 33 33 32
82 81 80 81 84 88 91 92 90 89 87 87 87 87 86 85 84 83 83 82 80 80 79 76 78 83 84 81 78 76 74 72 69 69 69 68 68 67 64 63 61 60 59 58 57 57 57 56 55 54 53 52 52 52 51 50 50 50 52 52 50 50 49 46 45 44 44 45 47 51 55 51 46 42 42 42 39 38 40 37 34 34 37 38 37 36 35 33
81 81 80 79 80 83 86 90 91 90 88 87 87 87 87 86 84 84 84 83 82 81 81 79 78 81 85 85 80 76 75 73 71 72 71 69 70 69 67 66 64 63 61 60 60 59 58 58 57 56 54 53 52 52 53 52 52 51 50 49 48 48 48 47 46 43 43 45 47 50 53 51 47 45 44 44 42 40 41 40 38 37 38 40 40 38 36 34
80 80 80 79 78 79 81 85 88 90 89 87 87 86 87 86 85 85 85 84 84 83 83 82 81 84 87 86 81 77 75 74 73 73 72 72 72 72 70 68 67 65 63 62 61 61 61 59 59 57 56 54 53 54 54 53 51 48 47 48 47 47 47 48 47 45 46 47 48 50 53 52 49 47 45 45 45 42 41 42 42 41 39 40 42 41 38 36
80 79 79 79 78 78 78 80 83 87 88 88 87 87 87 87 87 87 86 86 87 87 86 86 85 88 88 85 82 79 76 75 75 76 75 74 74 73 72 71 69 67 66 64 63 62 62 61 60 59 55 52 51 52 51 50 49 47 48 49 48 48 48 48 48 47 48 50 51 50 52 52 51 49 46 45 46 45 43 44 45 44 42 40 42 43 41 39
80 79 78 78 78 77 77 77 79 82 85 87 87 88 89 89 89 89 88 89 90 88 88 87 86 86 86 85 83 80 78 76 76 75 74 75 75 74 73 73 71 69 68 65 64 64 64 63 62 57 53 51 51 51 52 52 51 50 51 51 50 50 50 50 49 49 49 51 52 51 52 52 51 50 48 46 47 48 46 45 46 45 44 43 42 43 44 42
78 78 78 77 76 77 76 75 76 78 81 84 86 88 90 90 90 90 89 90 90 88 86 86 85 84 84 84 83 82 81 78 75 73 72 73 76 75 75 74 73 71 68 67 67 67 67 66 61 54 53 54 54 55 56 56 54 53 54 52 52 52 51 50 50 50 50 52 53 53 54 54 52 51 51 50 49 50 49 47 46 46 45 45 44 44 45 45
76 77 77 77 76 75 74 74 74 75 78 81 84 87 89 88 88 89 86 86 87 86 84 84 85 84 82 82 84 85 84 81 78 75 72 73 75 76 75 75 74 72 69 70 70 69 69 66 58 55 57 57 58 59 59 58 56 56 55 54 54 52 52 52 51 51 52 53 54 55 55 55 54 53 53 52 50 49 49 48 46 46 46 46 46 46 46 46
74 75 75 76 76 75 74 74 73 74 77 78 81 84 85 84 85 86 84 83 84 84 84 84 83 83 81 81 85 86 85 84 82 78 74 74 75 75 76 76 76 74 73 73 71 70 70 63 57 58 60 60 61 62 60 58 57 56 56 55 54 52 53 53 52 53 54 55 56 57 58 58 56 55 53 52 51 48 47 49 49 48 48 47 47 48 47 46
73 73 74 74 74 74 74 73 74 75 76 76 78 79 79 79 80 81 81 82 84 84 83 82 82 81 79 78 82 84 85 85 84 80 75 72 73 75 76 76 76 77 77 75 72 72 69 62 60 62 62 63 64 63 61 60 59 58 57 57 55 54 56 54 54 56 56 58 58 58 61 60 56 56 55 51 51 50 47 48 50 49 48 47 47 48 49 48
71 71 72 72 73 73 72 74 75 74 73 74 74 74 75 76 76 76 78 80 84 84 82 82 82 82 81 79 79 82 85 86 86 83 77 71 71 73 74 75 75 76 77 75 74 74 70 65 64 65 64 66 66 64 63 61 61 61 60 58 57 57 57 56 57 59 60 61 60 61 64 62 57 57 55 51 50 51 49 48 49 49 49 48 48 48 48 49
70 70 71 71 71 71 72 75 74 71 74 73 69 69 72 74 73 72 74 77 83 86 84 82 83 84 85 83 83 84 84 86 88 85 79 73 72 72 72 74 75 75 74 73 74 75 71 67 67 67 67 69 68 67 65 62 63 64 60 59 60 60 60 60 60 62 63 62 62 63 65 64 62 58 54 51 51 51 51 51 49 49 50 50 49 48 48 48
69 69 70 70 70 71 72 73 71 71 73 69 66 68 69 70 70 70 71 73 81 88 86 82 81 81 82 83 84 85 85 89 90 86 81 75 73 73 73 75 76 75 75 74 76 77 73 69 70 70 71 72 71 69 66 64 66 64 60 61 63 62 62 63 63 63 63 64 65 64 64 67 68 60 53 53 55 54 53 53 51 49 50 51 49 47 47 48
67 67 68 68 69 70 71 70 70 70 69 66 66 68 68 68 68 69 70 72 80 86 84 82 79 74 74 78 81 82 84 88 87 84 80 75 72 73 73 76 76 73 73 74 75 75 72 71 71 71 71 73 72 68 65 66 68 64 62 64 63 63 65 64 64 64 64 66 68 66 65 70 71 63 57 57 58 57 55 53 53 52 52 52 50 48 47 47
64 65 66 67 65 66 68 69 69 66 64 66 67 66 65 65 66 67 70 75 79 82 81 80 79 76 74 75 77 80 82 84 85 82 78 74 72 73 73 75 75 72 72 72 72 73 73 73 72 71 72 73 71 68 66 68 69 65 64 66 65 66 66 65 66 67 67 70 71 68 67 72 74 67 63 62 61 60 58 56 55 55 54 53 52 51 49 47
59 63 64 65 63 60 64 68 67 64 64 66 66 64 62 62 65 68 72 78 78 77 78 77 79 81 79 76 75 78 80 82 85 83 78 74 71 70 71 72 73 73 72 72 71 72 73 74 75 75 74 74 72 70 70 70 70 68 67 68 68 69 68 68 69 69 71 75 73 69 68 74 77 73 68 67 64 61 61 60 59 57 57 57 55 54 52 51
53 58 62 64 62 57 62 64 61 61 64 65 62 60 62 64 65 68 72 76 74 73 75 76 77 78 78 79 78 77 77 79 83 85 82 75 68 67 70 72 75 76 74 74 74 73 74 75 77 76 76 75 74 74 73 73 72 71 70 69 71 71 69 70 71 71 75 79 74 69 71 76 81 77 71 69 66 64 64 64 63 61 60 60 60 59 57 55
49 56 60 62 60 58 62 60 55 57 62 64 62 59 62 67 69 70 69 68 69 73 74 74 74 71 71 78 81 79 77 77 83 86 85 80 73 69 71 75 78 79 78 77 76 75 75 76 76 75 74 74 74 74 74 73 73 72 71 70 71 72 72 72 74 75 79 80 75 72 75 80 84 80 73 71 69 69 68 66 68 68 66 64 64 64 62 60
49 54 58 61 60 58 58 56 54 56 60 63 62 58 61 69 73 73 70 68 70 71 70 71 70 65 64 70 77 80 78 76 79 81 83 83 78 73 71 71 71 71 72 73 72 72 73 74 74 74 74 73 73 73 72 73 74 73 72 71 71 72 72 73 75 77 79 78 75 74 76 81 84 80 75 73 73 74 73 71 73 74 72 71 70 69 68 66
50 54 56 58 59 56 55 57 57 57 60 61 58 57 63 70 71 69 69 72 72 68 67 68 67 65 64 64 68 74 77 78 77 75 77 79 77 75 74 73 71 67 65 66 68 71 73 74 75 76 76 73 71 70 69 68 68 68 67 67 68 69 70 73 75 76 77 76 74 73 76 82 85 80 77 77 77 77 78 77 76 76 76 75 75 74 73 71
50 53 54 54 56 55 57 60 58 56 60 61 59 62 70 72 69 68 69 69 70 70 68 65 62 64 66 63 61 65 70 76 78 74 74 76 76 75 75 75 76 72 68 67 69 71 74 77 77 74 72 70 67 66 65 63 62 63 63 64 66 67 68 70 71 71 71 72 75 77 79 83 84 81 80 80 79 79 80 81 79 77 77 76 76 76 76 76
50 50 51 53 53 54 58 62 60 58 61 63 65 69 72 69 66 67 68 67 67 69 69 66 63 64 65 64 63 62 62 67 74 75 75 77 77 75 73 73 73 71 69 68 68 69 70 74 74 69 67 67 66 63 61 59 58 60 62 64 64 63 62 61 62 64 63 67 75 79 80 83 82 82 82 80 80 80 81 82 82 81 80 80 80 79 78 78
49 49 51 53 52 53 57 62 61 60 63 68 72 72 69 66 63 63 65 65 65 66 68 70 70 67 65 64 64 63 60 62 69 72 74 78 79 76 73 72 72 70 67 63 61 61 61 63 65 65 65 65 62 59 57 56 57 59 63 65 63 61 59 55 56 59 60 65 75 80 82 83 82 83 85 82 81 81 81 81 82 82 82 82 82 82 82 81
49 51 54 52 51 53 57 62 62 61 65 70 73 71 65 62 62 62 64 64 64 65 68 70 70 68 68 67 64 62 61 64 67 69 71 76 80 79 75 75 75 73 68 62 57 57 57 57 59 62 64 61 57 55 56 58 61 64 66 66 63 61 60 57 58 63 65 69 74 78 80 82 82 82 84 84 83 82 81 79 80 81 84 85 84 83 82 81
53 57 59 53 52 56 59 63 64 64 69 73 72 70 65 62 62 63 64 64 65 67 69 69 68 67 67 67 66 62 62 65 66 65 68 72 75 77 76 75 75 73 69 63 58 56 55 55 55 56 57 56 54 55 58 61 63 63 61 60 60 60 61 62 64 64 66 68 71 76 79 81 83 82 80 82 84 84 83 83 84 86 88 88 87 86 86 84
57 61 60 52 53 59 61 65 66 66 71 74 72 68 66 64 64 63 62 63 66 68 69 68 67 67 66 66 65 64 63 65 65 64 64 67 70 72 73 73 73 69 64 60 58 56 54 53 52 51 52 53 54 55 55 55 55 54 54 55 57 58 60 63 64 62 63 67 69 74 77 78 78 76 74 76 78 80 82 83 84 84 84 84 84 87 89 88
58 64 61 54 56 61 64 69 71 71 75 76 71 67 65 66 67 65 62 61 64 68 68 66 64 64 65 64 65 65 63 63 64 65 64 63 65 66 67 68 68 66 61 57 58 56 53 53 50 48 50 51 51 50 47 46 47 47 49 51 51 53 55 58 61 60 61 66 67 70 73 73 70 68 64 62 61 66 73 77 79 79 78 79 80 81 82 82
62 64 58 55 59 64 68 73 74 74 77 78 74 68 65 67 67 65 63 61 63 66 67 66 65 65 65 65 65 65 65 64 64 65 66 65 61 58 56 57 60 62 59 57 56 54 53 52 47 46 48 46 46 46 45 44 46 47 50 50 49 51 53 57 61 60 60 63 64 65 70 71 67 63 61 57 55 58 66 72 75 74 73 74 76 77 76 74
65 60 52 54 60 64 70 75 74 74 75 76 75 69 66 67 66 65 65 64 63 63 64 64 64 64 65 66 66 65 66 67 66 64 63 64 60 54 50 50 54 59 59 58 55 53 53 52 47 45 45 44 45 45 45 45 46 49 51 50 50 52 53 56 59 59 60 63 62 63 69 69 66 64 62 61 60 59 61 66 68 69 68 68 71 73 73 71
58 56 53 56 61 65 71 75 75 74 71 72 74 72 69 68 66 65 66 67 66 64 63 61 61 63 63 64 66 66 65 66 67 65 62 62 60 55 51 50 52 57 59 58 55 54 54 52 48 46 47 47 47 46 45 45 46 48 49 49 49 49 50 54 56 56 60 61 60 64 69 66 64 63 61 62 64 62 61 62 63 65 65 62 61 64 66 67
50 52 53 56 62 68 72 73 72 72 70 70 73 74 74 70 67 65 66 67 66 65 65 62 60 61 62 62 63 64 64 65 66 65 63 61 60 58 56 53 51 53 54 54 54 55 55 54 50 50 50 49 47 44 42 39 39 43 44 45 46 45 47 50 52 55 59 57 56 62 66 62 59 60 59 60 61 61 61 61 62 63 62 57 55 56 58 61
48 50 53 57 62 66 69 70 70 71 71 71 70 73 75 71 67 65 65 66 64 62 65 64 60 58 60 62 63 61 60 61 62 63 62 62 61 59 57 53 51 50 49 50 52 53 55 55 53 52 50 46 43 41 38 37 38 40 41 41 43 44 46 47 50 53 54 53 55 58 59 59 57 55 55 56 57 58 59 59 60 63 64 62 60 60 60 61
49 50 52 57 60 61 64 68 71 69 69 70 70 71 72 70 67 65 65 67 64 61 64 66 65 62 58 58 63 63 61 59 58 58 58 58 58 58 56 54 53 51 50 50 48 48 52 52 50 49 46 41 41 42 41 41 42 42 42 42 43 44 46 48 51 50 47 51 55 51 50 56 56 52 53 54 55 57 57 57 57 60 64 66 68 69 68 66
45 49 50 53 55 56 57 61 66 67 65 67 69 70 69 67 67 66 65 67 65 62 64 66 68 67 61 55 57 60 63 63 61 57 56 56 56 57 57 54 53 53 53 52 49 47 49 48 45 46 44 40 43 46 45 44 44 45 45 46 46 47 48 49 49 48 48 54 57 51 49 55 54 52 54 53 53 55 56 57 58 60 63 65 68 71 73 72
43 47 50 50 49 48 48 50 56 61 62 62 65 68 69 68 67 65 64 65 65 64 65 65 65 68 67 59 54 56 60 64 65 61 57 54 53 55 55 51 49 51 52 51 49 48 49 47 45 46 45 43 46 48 47 46 46 47 47 47 48 48 49 50 50 50 52 56 58 56 57 59 57 55 55 53 53 55 56 57 59 61 64 66 67 70 72 74
44 47 49 51 47 42 41 44 48 54 58 60 63 65 66 66 65 64 63 64 64 63 65 64 59 62 68 65 57 56 57 59 63 63 60 56 54 54 55 51 48 48 49 49 48 48 48 48 48 49 49 48 48 48 48 47 48 49 49 48 47 47 49 51 52 52 54 56 57 58 61 61 58 57 56 55 56 57 58 60 61 61 63 64 67 69 70 73
42 45 47 50 50 45 43 43 45 48 53 58 61 62 62 61 59 57 59 61 60 59 62 61 55 56 65 67 62 60 57 56 58 58 57 56 54 55 57 56 52 49 48 49 48 49 50 50 50 51 51 49 46 47 47 47 49 52 50 45 44 46 49 51 52 52 53 55 56 58 61 59 55 55 58 60 60 60 62 64 65 65 63 62 64 66 68 71
39 43 45 47 48 48 47 45 45 47 48 50 53 55 57 58 55 53 54 56 57 58 57 56 55 57 64 67 64 60 58 57 56 53 50 51 52 52 55 57 55 52 49 49 50 50 49 49 49 49 48 45 45 47 48 49 52 52 46 39 41 45 48 50 51 51 51 52 54 57 57 55 53 54 57 58 59 60 62 65 67 68 66 65 64 64 66 67
Wind_Direction
239 239 239 239 238 237 237 237 238 239 238 237 237 237 236 236 236 235 235 234 234 235 235 235 235 236 236 236 236 236 236 236 236 236 236 236 237 238 238 239 239 240 241 242 242 242 243 243 244 245 245 245 246 246 247 246 247 248 249 249 248 250 255 258 260 258 255 259 260 251 256 262 253 254 256 252 251 248 245 244 241 237 236 236 239 243 243 245
240 239 240 239 239 238 238 237 237 238 238 239 238 238 237 237 236 236 236 235 234 235 235 235 235 235 236 236 236 236 236 236 236 236 235 236 236 237 238 238 239 239 240 241 242 242 242 243 244 245 246 246 247 247 248 247 247 248 250 250 248 250 252 254 256 257 256 259 262 257 254 260 253 247 257 258 254 253 250 246 242 238 238 239 239 243 245 246
240 240 240 240 240 239 238 238 238 238 238 238 239 239 238 238 237 237 236 236 235 234 235 235 235 235 235 236 236 236 236 236 236 235 235 236 236 236 237 237 238 239 240 241 242 243 243 243 245 246 246 246 248 248 248 248 248 248 251 252 249 250 250 251 254 256 256 256 259 259 252 255 257 247 252 260 259 258 255 248 243 240 242 245 242 242 246 247
240 240 239 240 240 240 240 239 238 238 238 238 238 239 239 239 239 238 238 237 236 235 234 235 235 234 234 235 235 236 236 236 236 235 236 236 235 236 236 236 236 238 240 240 241 243 244 244 245 246 246 246 247 249 248 248 249 249 251 252 249 247 249 249 253 254 253 253 256 260 259 255 257 253 250 257 261 262 258 254 255 249 241 248 248 244 247 248
239 240 240 239 240 240 241 240 239 239 238 238 238 238 239 239 239 239 239 238 238 237 236 235 235 235 234 234 235 235 235 236 235 235 236 236 236 235 235 235 235 237 239 240 240 241 242 244 245 245 246 246 246 249 249 248 249 249 250 251 249 247 249 250 253 254 253 253 255 259 262 258 257 259 258 257 260 264 263 262 265 257 240 246 254 250 248 251
239 238 239 239 239 239 240 241 241 240 239 239 238 238 238 239 239 240 240 239 238 238 237 236 236 235 235 234 234 234 235 236 236 235 236 237 236 235 234 235 235 236 238 239 239 240 241 242 244 245 246 246 246 247 249 249 248 249 249 250 249 248 250 249 252 255 253 252 253 255 259 258 258 261 261 259 259 264 268 268 266 262 249 243 253 255 252 252
240 239 238 238 239 239 239 239 241 241 241 240 239 238 238 239 239 239 240 240 240 239 238 237 237 236 236 235 234 234 234 235 236 235 234 235 236 235 234 234 234 235 236 237 238 239 240 240 242 244 245 245 245 246 247 248 248 248 249 249 248 248 249 249 250 254 254 252 253 253 255 257 258 261 260 260 261 264 269 269 265 265 261 249 249 256 257 254
241 240 239 238 238 238 239 238 239 240 241 241 240 239 238 238 239 239 239 240 241 240 240 238 238 237 237 236 235 235 234 234 237 235 233 234 235 235 234 234 234 234 235 236 236 236 237 239 240 242 243 243 243 244 244 246 247 247 248 249 248 248 249 249 250 253 254 253 253 253 255 256 257 258 258 260 263 264 265 267 266 266 265 260 251 253 258 258
240 240 240 239 237 237 238 238 238 239 240 241 241 240 239 239 239 239 239 240 240 241 241 240 239 238 237 236 236 236 234 234 236 237 233 232 234 234 234 234 234 234 235 235 236 236 236 237 239 240 241 242 242 242 242 243 245 246 246 247 248 248 248 248 249 253 255 255 255 254 254 255 256 257 255 258 263 263 264 266 268 267 265 263 256 252 257 259
240 239 240 239 238 237 237 237 238 238 238 239 240 241 240 240 239 239 239 239 240 241 241 241 240 239 238 237 236 236 235 234 235 237 235 232 232 233 234 233 234 234 235 235 236 236 235 236 237 239 241 241 242 243 243 244 244 245 246 246 247 247 248 249 249 253 257 257 256 256 255 254 254 254 253 257 261 261 264 266 266 266 265 265 262 254 255 259
240 239 239 239 239 238 237 237 237 237 238 238 238 239 240 240 240 240 239 239 239 240 241 242 241 241 239 238 236 235 235 234 234 237 237 234 232 232 233 233 233 234 235 235 236 236 236 236 236 238 240 241 242 243 244 245 245 246 246 246 246 247 248 249 249 250 254 255 256 257 255 252 251 252 252 255 259 258 260 264 265 266 268 269 267 260 255 257
240 239 238 238 238 238 237 237 236 237 237 237 238 238 239 240 240 240 240 240 239 239 240 241 241 241 240 238 236 236 236 236 234 235 237 236 233 232 232 232 233 234 235 235 236 236 236 236 236 237 239 240 241 242 243 244 245 246 247 248 247 247 247 247 249 250 252 253 254 256 254 251 250 253 253 250 253 256 257 260 265 268 269 269 269 267 260 255
240 239 238 238 237 237 237 237 236 236 236 237 237 237 238 238 239 240 240 240 240 240 240 241 241 241 241 239 237 237 238 237 235 235 237 238 236 233 231 231 232 233 234 235 235 236 237 237 237 237 239 240 240 241 243 243 245 246 247 248 248 248 247 247 249 250 252 254 254 255 253 252 251 253 254 250 249 254 256 259 264 268 268 266 268 269 266 259
240 240 239 237 237 236 236 236 236 235 235 236 237 237 237 237 238 239 239 239 240 241 240 241 241 241 240 239 237 237 238 238 237 236 237 238 238 235 233 231 231 232 233 234 235 236 236 237 237 238 238 240 241 241 243 244 244 246 247 247 248 249 248 248 249 250 252 253 254 255 252 252 253 254 256 254 251 253 255 257 260 264 266 264 263 265 267 264
239 239 239 238 236 236 236 236 236 235 235 235 236 236 236 236 237 237 238 238 239 240 240 241 242 242 240 238 237 237 238 238 238 238 238 238 239 237 236 233 231 231 232 233 235 235 236 236 237 237 238 239 241 241 242 243 244 245 246 247 248 249 249 249 249 249 250 252 253 255 253 253 255 255 257 257 254 253 253 254 256 260 263 264 262 262 264 266
238 238 238 238 237 236 235 235 235 235 234 234 234 235 236 236 236 236 237 237 238 239 239 240 241 242 241 238 236 237 237 238 238 239 239 238 239 238 237 236 233 232 231 232 233 234 235 236 236 237 238 239 240 242 242 242 243 244 246 247 248 250 250 249 249 250 251 252 252 254 255 255 257 256 256 257 256 255 255 253 252 255 259 262 262 262 262 264
237 237 237 237 237 236 235 234 234 234 234 234 233 234 235 236 236 236 236 236 236 237 238 238 239 241 241 238 236 236 237 237 238 240 240 238 239 239 238 238 236 234 232 232 233 234 235 236 236 236 237 238 240 243 243 243 244 245 247 248 249 251 252 251 251 252 252 253 254 255 254 254 257 257 256 255 255 254 256 255 252 251 255 259 261 262 263 265
236 236 236 236 236 236 235 234 234 234 233 233 233 233 233 234 235 235 235 235 235 236 236 237 237 239 240 239 237 236 236 237 238 240 240 239 239 239 238 238 237 236 234 233 233 234 234 235 236 236 236 237 240 242 245 246 247 248 250 251 251 251 251 252 253 253 252 252 253 254 254 253 254 255 255 256 256 254 253 255 254 251 251 255 260 262 264 265
235 235 235 235 235 235 235 234 233 233 233 233 232 232 232 232 233 234 234 234 234 234 235 236 237 239 240 240 239 238 237 238 239 239 240 239 239 239 239 239 238 237 235 234 234 234 235 235 235 236 237 238 241 244 247 248 249 250 250 250 250 250 250 251 253 253 253 253 251 252 254 254 253 253 253 254 256 256 254 253 254 254 252 252 257 260 262 263
235 234 234 234 234 234 234 234 233 232 232 232 232 231 231 231 231 232 233 234 235 235 236 237 238 240 241 240 240 239 238 237 238 239 240 240 240 239 240 240 239 238 236 235 235 235 236 236 236 237 240 241 242 244 246 246 247 248 248 249 249 250 250 251 253 253 254 255 254 252 252 252 252 254 254 253 253 254 254 254 254 255 255 254 255 258 260 261
234 234 233 233 233 234 234 234 233 233 232 232 232 231 231 231 232 233 233 235 236 235 236 236 237 238 239 240 240 240 238 238 238 239 240 240 241 239 239 240 240 239 237 237 236 236 235 236 236 237 239 240 240 241 242 243 244 246 247 249 249 249 251 252 254 255 256 256 256 256 254 252 251 252 253 253 252 253 254 254 256 256 257 257 257 258 260 261
233 233 233 232 232 233 233 233 233 233 232 231 231 232 232 232 233 233 234 235 236 235 235 236 236 237 237 238 239 239 239 238 238 239 240 240 241 241 241 241 242 241 240 239 238 236 236 236 236 237 238 239 240 240 240 242 243 244 246 248 249 251 253 254 256 258 259 259 258 259 257 253 251 250 250 252 252 254 256 256 257 258 257 257 257 258 259 260
232 232 232 232 231 231 232 232 232 233 233 232 231 232 232 232 233 233 233 235 236 235 236 236 236 237 236 235 237 238 239 239 238 237 238 239 239 240 241 241 242 241 241 240 239 238 238 237 237 237 238 239 240 240 241 243 244 245 247 249 251 253 255 257 258 259 260 261 260 261 259 253 251 251 250 251 252 252 255 256 256 257 257 258 258 258 258 258
232 231 231 231 231 231 231 231 231 232 232 232 232 231 231 232 234 234 234 236 235 234 235 235 235 235 235 235 236 237 239 239 238 237 236 237 238 238 239 240 240 241 241 241 240 239 238 237 237 237 238 239 239 240 242 243 245 246 247 250 251 253 255 256 258 260 260 261 261 262 260 254 252 253 250 251 253 252 253 255 256 257 258 259 259 258 259 258
231 230 231 230 230 230 230 231 231 231 232 232 232 231 231 232 233 234 235 237 236 234 233 233 234 234 233 234 235 236 239 239 239 238 236 236 236 237 238 239 239 240 241 242 242 241 238 236 237 237 238 239 240 240 240 242 244 245 246 249 251 252 254 256 257 259 259 261 261 263 262 255 252 256 254 253 255 254 255 255 255 258 259 260 261 260 261 261
231 230 230 229 229 229 229 230 230 230 231 232 231 231 232 232 232 234 235 238 237 234 232 232 233 233 232 232 233 234 237 238 238 238 237 235 235 236 238 238 239 239 241 242 243 242 238 236 238 238 239 240 241 240 241 241 244 246 248 250 250 252 254 255 256 257 259 261 262 264 265 260 254 254 255 257 257 255 256 256 255 257 258 259 262 263 263 263
230 230 229 229 228 228 228 229 229 229 231 231 231 231 231 232 232 232 234 237 238 234 232 231 232 233 233 233 234 233 235 237 238 239 237 235 234 235 237 238 238 239 240 241 242 241 239 238 239 239 240 241 241 241 243 243 245 247 249 250 251 252 254 254 256 258 260 262 262 262 265 264 257 252 255 258 258 257 256 256 256 256 257 259 261 263 266 266
230 229 229 228 228 227 228 228 228 228 229 229 231 230 229 230 230 230 230 233 237 235 231 231 230 230 232 233 233 233 234 236 238 240 240 238 236 235 236 237 238 239 240 241 242 242 241 240 241 242 242 243 243 244 245 246 247 247 248 250 252 254 254 255 257 258 259 260 261 261 262 265 260 254 256 258 257 258 257 257 259 260 261 262 261 262 263 266
229 228 227 227 227 227 227 227 226 226 226 227 228 228 227 227 228 229 228 229 235 235 232 230 230 227 227 229 231 231 232 234 237 240 241 242 241 239 238 238 239 239 240 241 241 241 241 241 241 242 243 244 245 245 245 246 247 247 248 249 251 253 254 255 256 257 258 258 259 260 262 266 263 257 258 259 257 259 259 259 261 262 264 265 265 265 265 265
228 228 226 225 224 225 225 225 225 224 224 225 226 227 225 224 224 225 226 227 231 234 234 231 229 229 227 226 228 229 229 231 234 236 238 239 241 241 240 239 239 239 240 241 241 240 241 241 241 242 243 244 244 245 245 246 247 246 247 248 250 252 253 255 256 257 258 259 259 261 264 267 266 259 259 262 261 262 264 263 263 263 265 266 266 267 268 268
226 226 225 223 222 223 224 223 223 223 223 224 224 224 222 220 220 221 224 228 230 231 234 233 230 229 229 228 228 229 228 229 232 234 235 235 236 237 238 237 237 237 239 240 240 240 240 241 241 242 243 243 243 244 245 247 248 248 248 250 251 253 254 255 256 257 259 261 263 265 266 267 266 261 260 264 264 265 266 266 268 268 268 269 269 268 268 268
224 224 222 221 219 221 223 221 220 221 222 221 220 220 221 219 217 217 220 226 228 229 230 232 230 227 228 230 230 230 230 231 233 234 236 236 236 235 237 238 238 237 238 239 240 240 240 241 243 243 243 243 244 246 247 249 250 251 251 252 253 254 256 256 257 258 261 264 266 268 268 267 267 265 263 264 266 268 269 269 271 271 269 270 270 270 270 269
222 221 220 220 218 219 222 218 215 217 217 218 217 218 221 220 218 217 218 220 225 229 230 232 230 226 226 229 228 228 229 231 233 235 236 237 238 238 238 239 240 240 241 242 243 242 241 242 243 244 244 245 247 248 249 251 254 255 255 255 255 256 257 258 260 261 263 266 268 269 269 268 269 268 265 265 267 270 271 270 271 272 270 270 270 270 270 270
221 220 218 219 217 217 218 213 211 212 212 212 212 214 218 220 219 218 219 220 222 226 230 232 231 227 226 228 228 227 226 227 230 232 235 236 237 237 236 237 239 240 240 241 241 241 242 242 243 246 247 248 249 250 251 254 256 257 258 258 258 258 260 262 263 264 265 267 267 267 266 267 270 269 266 267 267 268 271 271 270 272 273 273 273 272 271 271
218 218 217 217 215 213 213 210 207 209 210 207 207 213 218 220 219 218 219 219 220 223 226 229 230 228 227 227 227 227 227 228 229 228 231 234 235 236 237 237 238 239 239 239 241 242 243 244 244 247 250 250 250 251 252 253 255 256 256 257 257 259 263 264 264 265 267 267 265 264 264 266 270 270 267 268 266 266 270 272 272 272 272 274 274 274 274 273
215 215 214 213 214 214 211 207 204 206 210 208 207 213 219 221 220 220 220 220 221 222 224 226 227 227 226 225 226 226 225 227 229 228 228 231 233 235 236 238 239 240 241 243 246 247 248 249 249 250 252 252 253 254 254 253 254 255 255 256 259 261 262 262 263 264 265 265 264 265 266 268 270 270 268 268 268 268 270 273 275 274 274 274 274 274 275 274
215 216 215 212 213 213 210 206 203 205 210 212 212 213 216 220 220 219 220 220 220 221 222 225 227 226 226 225 225 225 223 223 226 227 228 230 231 232 233 236 237 238 240 243 247 248 249 250 249 249 251 253 254 254 252 251 252 254 255 257 259 258 256 256 259 260 260 262 264 266 267 268 269 269 269 269 268 269 271 273 275 276 275 274 275 275 275 275
217 219 218 212 210 211 209 206 204 205 209 214 216 214 215 219 220 219 218 218 219 219 219 223 226 227 228 228 227 225 223 223 224 224 225 228 231 232 232 234 236 238 238 239 242 244 245 246 247 247 248 249 249 248 247 248 250 254 256 257 255 253 253 254 255 257 259 261 264 266 267 267 268 270 272 271 271 271 271 271 272 274 275 275 274 274 274 275
219 221 219 210 206 209 209 207 206 207 212 215 216 214 214 217 219 219 218 217 218 219 219 222 225 226 227 229 230 227 225 225 225 224 224 226 229 232 233 235 237 238 238 238 239 241 243 244 245 246 247 247 245 244 247 250 253 254 253 251 249 250 252 253 253 256 258 259 262 264 265 266 268 270 271 272 271 271 270 270 271 272 273 274 274 273 273 273
219 222 218 206 204 208 207 208 209 211 215 216 216 214 213 214 216 218 217 216 216 217 217 219 223 225 227 228 229 229 229 228 228 227 227 228 230 231 231 233 235 236 237 238 239 240 241 242 243 244 244 243 243 245 250 253 254 251 248 247 249 252 254 254 253 253 255 257 260 263 264 266 268 269 270 270 270 270 270 271 271 271 271 272 272 273 273 273
218 222 217 206 206 209 208 210 212 213 215 216 215 214 214 215 216 217 217 216 216 217 217 217 219 222 224 227 228 228 229 229 229 229 229 230 231 232 232 234 235 235 234 236 237 237 239 242 243 243 243 243 246 249 250 250 250 249 248 248 250 252 253 252 252 253 255 258 260 262 264 265 265 265 266 267 267 268 269 269 270 269 268 268 269 270 271 271
219 221 217 209 210 211 211 213 214 215 216 215 214 214 215 216 217 217 217 216 216 218 219 218 218 219 221 224 226 228 230 230 229 229 230 231 232 234 236 237 238 235 233 235 238 238 240 242 242 242 244 245 246 247 246 245 247 248 248 247 246 247 248 250 253 256 256 256 257 259 260 261 261 261 262 263 262 263 266 267 267 267 266 266 267 267 267 267
222 221 215 211 212 213 214 216 216 217 217 215 214 214 215 216 217 217 217 215 214 214 216 215 215 218 221 222 223 226 229 232 232 231 231 232 233 235 236 236 235 233 231 233 234 235 237 238 238 240 242 242 242 243 244 243 243 244 246 247 247 248 250 252 254 255 252 251 251 252 253 256 258 258 258 259 258 258 260 262 264 264 263 262 263 263 263 263
220 218 213 211 211 213 216 218 218 218 218 216 215 214 215 216 216 216 216 216 214 213 213 212 212 217 221 221 221 223 226 230 233 233 233 233 232 232 232 232 231 230 230 232 234 235 237 237 238 238 238 239 240 242 243 243 243 245 247 249 250 249 249 250 251 252 251 249 249 251 252 254 256 256 255 255 255 255 254 255 257 259 259 259 258 258 259 260
216 212 210 211 211 213 217 219 220 220 219 219 218 216 216 218 217 216 216 218 218 216 214 212 213 217 221 221 221 222 225 228 231 231 232 232 230 228 228 229 229 230 231 234 236 238 240 240 240 241 241 242 245 247 249 251 252 253 251 252 254 252 251 251 252 252 253 253 252 253 255 256 255 256 255 253 254 254 253 251 252 253 254 254 254 254 255 257
214 209 207 211 213 214 217 219 221 222 220 219 220 219 218 218 218 217 217 217 218 217 215 212 211 215 219 221 221 223 225 228 229 229 229 230 230 228 227 226 228 230 232 234 236 237 239 238 238 242 245 247 250 252 251 251 251 253 253 253 254 254 253 252 252 252 255 257 256 255 258 259 256 254 254 252 252 253 252 250 249 249 249 249 248 249 250 252
211 208 206 211 214 214 216 217 218 221 221 220 220 220 220 219 218 217 216 216 216 216 215 213 212 212 214 216 219 221 223 225 227 227 228 229 229 227 227 227 227 230 232 234 234 234 235 236 236 241 245 246 249 249 247 247 248 249 250 250 250 250 250 250 252 255 258 259 259 259 261 262 259 254 252 252 252 253 253 251 249 247 247 247 246 246 246 248
205 205 204 209 215 216 215 215 216 218 220 220 220 221 222 223 221 218 216 216 216 215 215 214 213 212 211 211 215 219 222 223 224 225 226 226 225 224 226 228 229 231 232 234 235 234 236 237 238 242 244 245 249 250 249 250 250 250 250 249 248 248 248 250 252 255 256 257 259 260 258 259 259 255 252 252 253 255 256 255 252 250 249 248 247 246 246 246
201 202 201 204 212 217 216 214 214 215 218 219 219 220 222 224 224 222 218 217 217 215 214 213 212 212 211 210 213 218 221 221 221 222 222 222 222 222 224 226 228 229 230 232 234 235 237 237 237 241 244 244 246 249 249 249 250 251 251 250 250 249 251 253 254 255 255 256 258 259 256 256 258 256 255 254 254 256 257 257 257 255 253 250 248 248 248 247
200 202 201 200 204 210 213 213 213 213 215 217 219 221 222 223 224 224 221 220 218 216 214 212 210 211 211 211 214 218 219 220 221 222 222 222 222 223 223 224 226 228 228 229 230 232 236 237 237 241 243 241 243 246 248 250 251 252 252 252 253 254 255 256 257 257 257 258 261 261 261 261 260 260 258 255 254 255 257 258 259 258 255 253 251 251 251 252
201 201 201 201 204 207 211 213 214 215 215 215 217 220 222 222 222 222 222 222 221 219 218 214 210 210 211 212 216 219 219 220 222 223 224 226 227 227 228 227 227 228 229 230 232 235 238 238 237 239 241 241 242 246 249 250 251 251 252 254 257 259 260 260 260 260 260 262 263 262 262 264 264 262 260 257 255 256 258 259 259 258 257 256 256 256 256 256
202 201 199 201 205 209 212 214 215 216 217 217 215 215 218 219 220 221 221 221 221 220 219 217 214 213 212 211 216 221 221 221 222 221 220 222 224 226 229 229 229 231 234 236 238 240 240 239 239 240 243 244 243 246 249 249 249 250 254 259 262 262 262 260 260 261 263 263 263 262 263 264 263 261 261 259 258 259 260 260 260 261 263 263 262 261 261 261
Height
5713 5716 5718 5721 5724 5728 5731 5733 5736 5738 5740 5743 5745 5748 5750 5753 5755 5757 5759 5762 5764 5766 5769 5771 5774 5777 5780 5782 5785 5788 5791 5794 5797 5802 5804 5806 5807 5810 5813 5815 5818 5820 5821 5823 5825 5827 5829 5832 5833 5835 5837 5840 5842 5843 5846 5849 5851 5852 5854 5856 5859 5862 5862 5863 5862 5863 5864 5863 5863 5866 5867 5868 5868 5869 5869 5869 5869 5870 5870 5871 5871 5872 5873 5873 5874 5874 5875 5875
5706 5709 5712 5715 5718 5721 5725 5728 5730 5733 5735 5738 5740 5743 5745 5748 5751 5753 5755 5757 5760 5762 5764 5767 5770 5772 5775 5778 5780 5783 5786 5789 5793 5797 5799 5801 5804 5806 5809 5812 5815 5816 5817 5819 5821 5823 5825 5827 5829 5831 5834 5837 5839 5840 5843 5846 5848 5850 5851 5853 5857 5860 5860 5860 5860 5861 5862 5862 5862 5864 5867 5866 5867 5869 5868 5868 5869 5869 5869 5869 5870 5871 5872 5872 5873 5873 5874 5874
5698 5701 5704 5707 5711 5714 5718 5721 5724 5727 5730 5733 5735 5738 5740 5743 5746 5748 5751 5753 5756 5758 5760 5762 5765 5768 5770 5773 5775 5778 5781 5785 5789 5792 5794 5797 5800 5802 5806 5809 5811 5811 5813 5815 5817 5819 5822 5824 5826 5828 5831 5834 5835 5837 5840 5843 5845 5847 5848 5850 5856 5858 5857 5858 5858 5859 5860 5861 5861 5862 5864 5865 5866 5868 5867 5867 5868 5868 5867 5867 5868 5871 5872 5872 5871 5872 5873 5873
5690 5693 5697 5700 5703 5707 5711 5714 5717 5721 5723 5727 5730 5733 5735 5738 5740 5743 5746 5748 5751 5753 5756 5758 5760 5763 5765 5768 5771 5774 5777 5780 5784 5787 5789 5792 5795 5799 5802 5804 5806 5807 5809 5812 5814 5816 5819 5821 5822 5824 5827 5830 5832 5833 5837 5840 5842 5844 5844 5847 5853 5855 5854 5856 5856 5856 5857 5858 5860 5861 5862 5864 5865 5866 5867 5866 5867 5867 5865 5866 5868 5870 5872 5871 5870 5872 5872 5872
5682 5685 5689 5692 5696 5699 5703 5706 5710 5714 5717 5720 5724 5727 5730 5732 5735 5737 5740 5743 5746 5749 5751 5753 5755 5758 5760 5763 5766 5769 5772 5775 5779 5783 5785 5787 5791 5795 5797 5799 5802 5803 5805 5808 5810 5813 5815 5817 5818 5821 5823 5826 5829 5830 5833 5836 5839 5840 5841 5844 5849 5851 5851 5854 5853 5852 5854 5856 5858 5859 5860 5862 5864 5865 5866 5866 5866 5865 5864 5867 5868 5868 5870 5870 5870 5871 5871 5871
5672 5676 5680 5684 5688 5692 5695 5699 5702 5706 5710 5713 5717 5721 5724 5726 5729 5731 5734 5737 5740 5743 5746 5749 5751 5753 5755 5758 5761 5765 5768 5771 5775 5779 5781 5783 5787 5790 5792 5795 5797 5799 5801 5804 5807 5809 5811 5813 5814 5816 5819 5822 5825 5826 5829 5832 5834 5835 5837 5841 5844 5847 5848 5851 5850 5848 5851 5853 5856 5857 5857 5859 5862 5864 5864 5865 5866 5864 5863 5866 5867 5866 5869 5870 5869 5869 5870 5871
5662 5667 5672 5676 5679 5683 5688 5692 5695 5699 5702 5706 5710 5714 5717 5720 5723 5726 5729 5731 5734 5737 5740 5743 5745 5748 5750 5753 5757 5760 5764 5767 5770 5775 5777 5779 5781 5784 5787 5790 5792 5795 5797 5799 5802 5805 5807 5809 5810 5812 5814 5817 5820 5822 5825 5827 5829 5830 5833 5837 5840 5843 5844 5847 5847 5845 5847 5850 5853 5854 5854 5857 5860 5862 5862 5864 5865 5864 5863 5864 5865 5865 5866 5868 5869 5868 5869 5870
5651 5656 5662 5667 5671 5675 5679 5684 5688 5691 5694 5698 5702 5707 5710 5713 5716 5720 5723 5725 5728 5731 5734 5737 5740 5743 5744 5748 5752 5754 5760 5765 5765 5768 5773 5775 5776 5779 5782 5785 5787 5790 5792 5794 5797 5799 5802 5804 5806 5808 5809 5812 5815 5818 5820 5821 5823 5825 5829 5833 5836 5839 5841 5843 5844 5842 5843 5847 5849 5850 5852 5854 5857 5858 5860 5862 5863 5863 5862 5861 5863 5863 5864 5866 5868 5868 5867 5868
5642 5646 5651 5657 5662 5667 5671 5675 5679 5683 5687 5691 5694 5699 5703 5706 5710 5713 5716 5720 5722 5724 5727 5730 5733 5736 5739 5743 5746 5749 5757 5762 5760 5762 5767 5771 5772 5775 5778 5781 5783 5785 5788 5790 5792 5795 5798 5800 5802 5803 5804 5807 5810 5812 5814 5816 5818 5821 5825 5828 5831 5834 5837 5839 5840 5839 5840 5844 5846 5847 5849 5852 5854 5854 5857 5861 5861 5861 5860 5860 5862 5862 5863 5864 5866 5867 5867 5867
5632 5637 5641 5646 5652 5658 5662 5666 5671 5675 5679 5683 5687 5691 5695 5699 5703 5706 5710 5713 5715 5718 5721 5723 5726 5729 5733 5737 5740 5746 5754 5757 5755 5756 5761 5766 5769 5771 5774 5776 5779 5781 5783 5785 5788 5791 5793 5795 5797 5798 5800 5803 5805 5807 5810 5811 5815 5818 5821 5823 5826 5829 5832 5835 5837 5837 5837 5840 5842 5843 5846 5849 5851 5849 5854 5860 5859 5858 5859 5858 5860 5860 5862 5863 5864 5865 5865 5866
5621 5626 5631 5637 5642 5647 5653 5658 5662 5667 5671 5675 5679 5683 5687 5691 5695 5699 5703 5705 5709 5712 5714 5716 5719 5722 5726 5730 5735 5743 5749 5750 5751 5752 5755 5761 5764 5767 5770 5772 5775 5777 5779 5782 5784 5786 5788 5791 5793 5794 5795 5798 5801 5804 5805 5808 5811 5814 5816 5819 5822 5825 5828 5831 5833 5834 5833 5835 5838 5839 5840 5844 5846 5846 5852 5858 5855 5855 5856 5856 5858 5859 5861 5861 5862 5863 5864 5865
5610 5615 5621 5627 5632 5637 5643 5648 5654 5658 5662 5667 5671 5675 5680 5683 5687 5691 5695 5698 5701 5704 5707 5709 5710 5714 5718 5722 5731 5740 5742 5743 5746 5748 5751 5755 5759 5762 5766 5768 5771 5773 5775 5777 5779 5782 5784 5786 5788 5790 5791 5794 5797 5798 5801 5804 5806 5810 5812 5814 5818 5821 5824 5827 5829 5830 5830 5831 5834 5834 5834 5838 5842 5844 5849 5853 5851 5851 5853 5855 5856 5858 5859 5860 5859 5860 5862 5863
5599 5605 5610 5616 5622 5628 5633 5638 5644 5649 5654 5658 5663 5667 5671 5676 5680 5683 5687 5690 5693 5697 5701 5701 5702 5707 5709 5716 5729 5733 5732 5735 5740 5745 5747 5749 5753 5757 5761 5764 5766 5768 5770 5773 5775 5777 5780 5782 5784 5786 5788 5790 5792 5793 5797 5800 5803 5806 5808 5810 5813 5816 5819 5823 5825 5826 5826 5828 5830 5828 5827 5832 5840 5842 5844 5848 5849 5849 5851 5854 5855 5855 5856 5858 5858 5858 5859 5860
5589 5594 5600 5606 5612 5618 5623 5629 5634 5640 5645 5649 5654 5659 5663 5668 5671 5675 5679 5683 5686 5689 5692 5693 5694 5697 5701 5712 5722 5723 5725 5729 5734 5742 5744 5744 5746 5751 5755 5758 5761 5763 5765 5767 5770 5773 5775 5777 5779 5782 5784 5785 5788 5790 5794 5796 5800 5802 5803 5805 5808 5811 5815 5820 5822 5822 5822 5824 5825 5822 5821 5828 5837 5840 5840 5844 5847 5847 5848 5851 5853 5853 5853 5854 5856 5855 5855 5856
5580 5585 5590 5595 5601 5608 5614 5619 5624 5630 5636 5641 5646 5650 5655 5659 5663 5668 5670 5674 5679 5680 5684 5687 5685 5686 5694 5705 5711 5715 5720 5723 5730 5737 5737 5738 5740 5744 5749 5752 5755 5758 5760 5762 5765 5768 5769 5772 5775 5777 5780 5782 5783 5786 5789 5792 5796 5797 5798 5801 5804 5806 5811 5815 5816 5817 5818 5819 5819 5817 5818 5826 5834 5837 5838 5840 5843 5844 5845 5848 5850 5850 5849 5850 5852 5852 5853 5853
5571 5576 5581 5586 5591 5598 5604 5610 5615 5621 5627 5632 5637 5641 5646 5651 5655 5659 5662 5667 5670 5671 5676 5677 5676 5680 5686 5694 5702 5710 5715 5719 5727 5728 5729 5733 5734 5737 5742 5745 5750 5753 5755 5758 5760 5762 5764 5766 5770 5772 5775 5778 5780 5782 5785 5788 5791 5792 5794 5797 5800 5802 5805 5809 5810 5812 5814 5814 5814 5815 5817 5823 5828 5832 5834 5835 5839 5841 5841 5844 5846 5847 5846 5846 5847 5849 5850 5852
5561 5566 5572 5577 5582 5588 5594 5600 5606 5612 5618 5623 5628 5633 5638 5642 5646 5649 5652 5657 5660 5663 5667 5667 5673 5674 5672 5683 5697 5706 5710 5714 5720 5720 5722 5728 5727 5730 5735 5738 5742 5746 5750 5753 5754 5756 5758 5761 5764 5768 5771 5774 5778 5779 5780 5784 5787 5789 5791 5795 5797 5798 5800 5803 5805 5808 5810 5809 5810 5811 5814 5819 5822 5826 5829 5830 5834 5837 5838 5840 5842 5843 5844 5843 5844 5845 5847 5850
5551 5557 5562 5568 5573 5579 5584 5591 5597 5603 5609 5615 5620 5624 5628 5632 5636 5638 5642 5647 5650 5654 5655 5658 5664 5661 5662 5680 5693 5699 5705 5709 5713 5713 5715 5720 5720 5723 5727 5730 5734 5738 5744 5746 5749 5751 5753 5756 5759 5762 5766 5771 5774 5775 5777 5781 5784 5787 5789 5790 5791 5793 5795 5797 5799 5802 5804 5804 5806 5807 5809 5814 5817 5820 5823 5825 5828 5832 5835 5835 5837 5839 5841 5841 5841 5842 5845 5847
5541 5547 5553 5559 5564 5570 5575 5582 5588 5594 5600 5606 5610 5614 5618 5621 5624 5627 5632 5636 5637 5640 5644 5650 5655 5655 5665 5680 5684 5691 5700 5702 5704 5704 5706 5711 5712 5716 5720 5722 5726 5731 5736 5740 5744 5746 5747 5751 5753 5757 5764 5770 5773 5773 5776 5778 5779 5783 5783 5782 5786 5788 5790 5792 5793 5796 5797 5798 5801 5803 5804 5808 5811 5814 5818 5822 5823 5827 5830 5831 5833 5835 5837 5839 5839 5839 5841 5843
5531 5538 5545 5550 5555 5561 5567 5573 5579 5585 5590 5594 5599 5603 5605 5608 5612 5616 5622 5624 5627 5636 5642 5647 5652 5654 5662 5670 5674 5684 5690 5691 5694 5694 5697 5701 5703 5710 5713 5713 5719 5724 5729 5735 5738 5739 5742 5744 5748 5757 5766 5769 5770 5770 5771 5771 5773 5776 5774 5777 5782 5783 5785 5787 5788 5790 5792 5792 5794 5798 5800 5802 5806 5809 5812 5817 5819 5821 5825 5827 5829 5832 5834 5836 5837 5837 5837 5839
5523 5529 5535 5542 5548 5553 5559 5565 5570 5576 5581 5584 5588 5591 5594 5602 5607 5611 5618 5619 5622 5632 5634 5637 5643 5647 5653 5661 5668 5673 5675 5680 5685 5685 5690 5694 5697 5703 5706 5708 5712 5717 5725 5730 5730 5732 5734 5737 5748 5759 5762 5761 5762 5763 5761 5762 5768 5768 5769 5773 5776 5778 5781 5782 5783 5785 5786 5787 5789 5791 5793 5797 5802 5804 5807 5810 5814 5817 5820 5824 5826 5828 5830 5832 5834 5834 5834 5835
5515 5520 5527 5534 5539 5545 5552 5557 5562 5567 5570 5573 5578 5581 5589 5600 5602 5607 5614 5612 5614 5623 5625 5629 5635 5638 5648 5655 5658 5661 5665 5671 5675 5679 5686 5690 5693 5698 5702 5704 5706 5713 5721 5720 5720 5725 5727 5734 5750 5756 5753 5754 5754 5753 5753 5758 5762 5763 5765 5768 5771 5775 5777 5777 5780 5781 5780 5782 5784 5784 5786 5791 5796 5799 5802 5805 5810 5814 5816 5820 5823 5823 5825 5828 5829 5830 5830 5832
5507 5513 5519 5525 5531 5538 5544 5548 5554 5557 5559 5564 5570 5575 5587 5595 5594 5598 5604 5602 5607 5616 5617 5621 5626 5632 5642 5647 5649 5653 5657 5661 5666 5674 5680 5682 5687 5692 5695 5697 5701 5707 5709 5708 5715 5720 5723 5737 5749 5747 5746 5748 5746 5745 5750 5755 5757 5759 5762 5764 5768 5773 5771 5772 5776 5776 5776 5777 5777 5778 5779 5783 5789 5793 5798 5801 5805 5810 5813 5815 5817 5818 5821 5823 5824 5824 5825 5827
5499 5506 5511 5517 5524 5530 5536 5541 5544 5546 5551 5558 5564 5572 5583 5585 5584 5591 5597 5595 5598 5604 5608 5614 5619 5624 5634 5640 5645 5647 5648 5652 5658 5665 5672 5676 5681 5684 5685 5690 5694 5695 5696 5702 5710 5713 5721 5736 5740 5737 5740 5739 5737 5741 5747 5750 5752 5755 5757 5760 5765 5767 5765 5768 5771 5769 5769 5769 5771 5772 5770 5776 5785 5786 5792 5798 5800 5805 5809 5810 5811 5814 5816 5818 5818 5819 5821 5822
5491 5498 5503 5510 5516 5522 5530 5531 5532 5540 5546 5551 5558 5569 5576 5575 5579 5587 5589 5585 5586 5593 5600 5604 5607 5613 5625 5633 5636 5640 5642 5645 5649 5656 5665 5670 5673 5676 5678 5682 5684 5686 5692 5699 5703 5705 5717 5729 5729 5730 5732 5729 5731 5737 5741 5745 5747 5748 5752 5757 5760 5760 5760 5764 5764 5761 5762 5763 5766 5766 5762 5770 5781 5781 5787 5795 5797 5800 5803 5805 5808 5809 5811 5813 5813 5815 5817 5818
5484 5490 5496 5503 5508 5516 5520 5518 5527 5537 5538 5544 5556 5566 5566 5568 5577 5581 5579 5574 5572 5580 5589 5594 5598 5605 5618 5623 5628 5636 5636 5635 5641 5648 5657 5662 5665 5669 5670 5673 5677 5683 5690 5693 5693 5696 5710 5722 5722 5724 5724 5722 5725 5730 5735 5741 5741 5742 5751 5754 5752 5753 5756 5757 5756 5755 5756 5759 5760 5760 5759 5764 5771 5777 5785 5791 5792 5794 5796 5799 5803 5805 5806 5807 5809 5812 5813 5814
5476 5483 5490 5496 5502 5507 5507 5513 5526 5528 5530 5544 5556 5557 5557 5563 5572 5573 5571 5564 5555 5565 5580 5586 5593 5603 5613 5618 5625 5630 5625 5627 5638 5640 5646 5653 5656 5660 5661 5665 5672 5679 5685 5683 5679 5689 5708 5716 5714 5716 5716 5714 5717 5724 5733 5737 5734 5740 5749 5744 5744 5749 5749 5749 5749 5750 5753 5753 5750 5754 5759 5756 5759 5774 5785 5786 5785 5788 5791 5793 5797 5800 5800 5801 5804 5808 5809 5809
5469 5476 5482 5489 5495 5499 5502 5511 5517 5518 5530 5545 5545 5543 5548 5557 5564 5563 5561 5551 5542 5555 5572 5579 5589 5601 5608 5611 5616 5619 5619 5630 5635 5631 5638 5645 5648 5653 5655 5659 5668 5675 5677 5673 5673 5689 5704 5707 5707 5710 5707 5706 5714 5724 5731 5729 5727 5739 5742 5735 5740 5743 5739 5742 5744 5744 5747 5743 5740 5751 5756 5748 5752 5771 5779 5778 5779 5780 5785 5789 5791 5793 5794 5795 5799 5802 5805 5806
5463 5468 5475 5483 5488 5492 5498 5504 5508 5517 5530 5533 5530 5534 5543 5551 5554 5552 5546 5537 5537 5550 5564 5572 5583 5591 5595 5600 5605 5609 5618 5626 5625 5626 5636 5638 5639 5645 5649 5656 5665 5668 5666 5664 5671 5686 5694 5698 5701 5699 5698 5703 5712 5719 5723 5720 5722 5732 5731 5729 5736 5733 5731 5736 5734 5736 5739 5731 5733 5748 5752 5742 5745 5762 5769 5769 5773 5775 5780 5784 5785 5788 5788 5790 5794 5795 5799 5801
5456 5462 5469 5475 5479 5486 5492 5496 5504 5516 5520 5520 5524 5532 5539 5540 5540 5537 5527 5522 5535 5549 5557 5565 5573 5580 5586 5593 5597 5602 5613 5617 5616 5622 5628 5628 5632 5637 5644 5652 5656 5656 5656 5658 5667 5680 5687 5691 5690 5687 5692 5700 5706 5709 5712 5712 5714 5721 5721 5724 5729 5723 5724 5728 5726 5730 5727 5719 5731 5747 5749 5738 5733 5750 5760 5760 5768 5773 5774 5777 5779 5782 5784 5785 5788 5789 5792 5794
5450 5456 5461 5465 5473 5481 5484 5490 5503 5511 5511 5515 5524 5527 5528 5527 5525 5521 5513 5519 5539 5549 5550 5555 5563 5573 5580 5586 5592 5599 5608 5610 5610 5613 5616 5620 5625 5627 5633 5639 5642 5647 5649 5651 5661 5673 5678 5679 5679 5681 5688 5693 5696 5701 5705 5705 5706 5711 5715 5721 5722 5716 5718 5721 5720 5723 5714 5712 5733 5745 5743 5730 5719 5738 5755 5756 5763 5768 5767 5771 5772 5776 5778 5778 5780 5781 5784 5787
5445 5450 5454 5459 5468 5473 5477 5491 5502 5503 5504 5511 5516 5515 5516 5513 5508 5507 5511 5527 5538 5537 5541 5548 5555 5567 5575 5580 5587 5595 5603 5605 5604 5607 5610 5615 5618 5619 5624 5627 5633 5641 5642 5645 5656 5665 5669 5671 5674 5676 5680 5686 5691 5696 5701 5700 5700 5705 5710 5715 5714 5710 5712 5711 5712 5715 5708 5712 5730 5736 5732 5718 5708 5728 5749 5753 5759 5758 5760 5768 5765 5765 5770 5771 5773 5774 5776 5779
5439 5444 5447 5452 5460 5466 5476 5491 5493 5491 5496 5503 5505 5504 5504 5497 5493 5500 5513 5525 5527 5528 5540 5546 5552 5565 5571 5573 5578 5587 5595 5597 5598 5603 5606 5609 5612 5615 5620 5623 5629 5635 5638 5646 5652 5657 5663 5666 5668 5668 5674 5684 5688 5693 5698 5696 5696 5698 5701 5706 5706 5704 5704 5702 5705 5709 5706 5712 5723 5726 5720 5704 5699 5724 5746 5750 5753 5751 5754 5760 5756 5755 5760 5763 5766 5767 5768 5771
5434 5439 5442 5447 5454 5462 5474 5481 5480 5483 5489 5493 5496 5494 5489 5482 5488 5502 5511 5516 5521 5529 5538 5541 5549 5561 5564 5566 5572 5580 5586 5587 5592 5598 5599 5602 5603 5605 5611 5616 5621 5627 5634 5640 5642 5648 5654 5656 5661 5665 5671 5681 5684 5689 5694 5692 5690 5690 5694 5697 5695 5696 5698 5697 5700 5702 5702 5708 5712 5712 5707 5695 5696 5722 5741 5742 5745 5749 5745 5746 5749 5751 5752 5753 5755 5759 5761 5764
5429 5432 5437 5443 5448 5456 5466 5470 5473 5478 5481 5484 5486 5481 5473 5474 5487 5499 5503 5510 5520 5528 5533 5538 5547 5554 5556 5562 5568 5573 5579 5583 5588 5591 5590 5592 5594 5596 5603 5609 5614 5621 5626 5630 5633 5642 5645 5648 5660 5666 5667 5672 5677 5682 5686 5683 5679 5682 5687 5685 5684 5693 5696 5691 5692 5694 5695 5696 5697 5699 5699 5695 5699 5716 5730 5732 5738 5745 5736 5732 5741 5744 5745 5746 5747 5752 5754 5755
5424 5427 5431 5435 5442 5452 5459 5462 5466 5470 5473 5476 5473 5467 5466 5474 5486 5494 5499 5509 5518 5523 5531 5535 5539 5544 5548 5555 5560 5564 5573 5578 5580 5583 5584 5586 5588 5591 5598 5603 5611 5617 5621 5627 5633 5639 5641 5645 5659 5663 5659 5664 5671 5676 5676 5672 5672 5676 5677 5676 5683 5693 5689 5682 5683 5688 5689 5682 5683 5691 5693 5696 5699 5704 5718 5727 5731 5736 5731 5728 5731 5731 5735 5740 5739 5744 5747 5746
5419 5423 5425 5429 5439 5448 5453 5457 5460 5463 5465 5465 5460 5459 5467 5476 5485 5492 5498 5507 5514 5520 5526 5528 5532 5538 5543 5548 5552 5558 5567 5569 5570 5574 5578 5581 5581 5585 5592 5598 5605 5612 5619 5627 5631 5633 5637 5642 5650 5653 5653 5660 5666 5666 5663 5663 5666 5668 5668 5674 5683 5682 5676 5677 5677 5679 5681 5672 5674 5685 5687 5690 5693 5692 5706 5721 5725 5728 5728 5726 5723 5719 5725 5731 5732 5736 5736 5735
5415 5418 5418 5425 5436 5444 5448 5451 5454 5456 5457 5454 5452 5458 5468 5475 5482 5488 5494 5503 5511 5515 5518 5520 5527 5535 5539 5543 5548 5554 5561 5561 5561 5567 5572 5574 5574 5579 5588 5594 5600 5607 5616 5624 5624 5624 5630 5635 5639 5643 5647 5654 5656 5651 5650 5655 5661 5663 5665 5670 5672 5666 5667 5675 5671 5669 5674 5667 5667 5677 5679 5682 5686 5687 5697 5709 5716 5721 5719 5718 5717 5714 5716 5721 5725 5727 5725 5725
5409 5409 5409 5421 5433 5438 5442 5445 5447 5449 5446 5442 5445 5455 5464 5471 5478 5483 5490 5499 5505 5508 5511 5517 5524 5531 5535 5539 5544 5551 5554 5554 5558 5563 5565 5567 5569 5575 5585 5590 5596 5604 5612 5618 5617 5618 5624 5628 5631 5636 5642 5645 5643 5639 5642 5651 5657 5659 5658 5656 5657 5658 5663 5667 5663 5664 5667 5662 5662 5668 5669 5673 5680 5685 5691 5697 5705 5708 5704 5706 5712 5714 5712 5710 5711 5714 5715 5718
5401 5399 5403 5420 5429 5431 5436 5438 5438 5437 5434 5435 5442 5452 5460 5467 5473 5479 5485 5493 5498 5500 5506 5514 5521 5526 5530 5535 5540 5546 5549 5552 5556 5559 5561 5564 5567 5573 5579 5584 5591 5601 5609 5613 5612 5614 5618 5620 5625 5632 5634 5633 5632 5633 5641 5649 5651 5650 5648 5646 5650 5655 5658 5658 5656 5659 5660 5657 5659 5661 5660 5667 5677 5680 5683 5687 5692 5695 5694 5698 5705 5708 5705 5701 5700 5702 5704 5708
5394 5391 5400 5418 5422 5424 5428 5425 5423 5425 5427 5432 5441 5450 5457 5463 5468 5474 5481 5488 5492 5496 5503 5511 5517 5521 5526 5531 5536 5540 5543 5548 5552 5555 5558 5560 5563 5569 5575 5582 5589 5598 5604 5603 5604 5609 5612 5614 5622 5626 5623 5625 5629 5633 5640 5643 5641 5641 5641 5643 5647 5650 5652 5650 5647 5653 5657 5652 5654 5656 5652 5659 5670 5674 5676 5680 5682 5685 5688 5691 5694 5695 5695 5694 5695 5695 5694 5696
5384 5384 5398 5413 5414 5416 5417 5412 5413 5419 5422 5428 5438 5447 5455 5459 5464 5470 5477 5483 5487 5492 5498 5505 5511 5516 5521 5527 5533 5536 5539 5542 5545 5549 5552 5556 5561 5569 5577 5585 5589 5594 5597 5596 5601 5608 5609 5610 5617 5618 5617 5623 5627 5628 5631 5633 5634 5634 5633 5637 5641 5642 5643 5641 5640 5649 5653 5646 5648 5651 5643 5647 5662 5668 5671 5674 5676 5679 5681 5682 5684 5685 5685 5686 5687 5686 5686 5686
5376 5383 5399 5407 5407 5409 5408 5405 5410 5414 5418 5427 5438 5446 5451 5455 5460 5466 5472 5477 5481 5487 5493 5500 5506 5511 5516 5523 5528 5532 5534 5537 5540 5545 5549 5554 5562 5570 5576 5581 5583 5586 5588 5591 5597 5602 5601 5603 5610 5613 5614 5617 5618 5619 5623 5626 5626 5625 5625 5631 5635 5635 5637 5636 5635 5641 5643 5638 5641 5641 5633 5639 5654 5661 5665 5666 5667 5671 5673 5674 5676 5676 5676 5678 5679 5678 5677 5677
5374 5383 5393 5397 5401 5402 5398 5399 5405 5411 5418 5427 5434 5439 5444 5449 5454 5460 5466 5470 5475 5482 5489 5495 5501 5506 5512 5519 5523 5526 5530 5533 5536 5541 5547 5552 5559 5567 5571 5573 5575 5578 5581 5586 5592 5595 5595 5598 5604 5607 5606 5607 5609 5613 5616 5618 5620 5621 5623 5626 5628 5631 5632 5629 5630 5632 5630 5631 5637 5632 5625 5635 5647 5652 5658 5660 5658 5661 5665 5666 5668 5668 5668 5670 5672 5671 5670 5670
5372 5379 5385 5390 5394 5393 5392 5399 5407 5412 5417 5423 5427 5434 5438 5442 5448 5455 5462 5467 5473 5480 5486 5492 5498 5503 5509 5514 5517 5520 5525 5529 5533 5538 5543 5548 5554 5560 5564 5567 5571 5574 5579 5584 5588 5591 5591 5593 5598 5598 5597 5600 5604 5609 5612 5616 5618 5617 5619 5621 5622 5625 5625 5623 5626 5624 5620 5627 5633 5625 5622 5633 5642 5645 5651 5654 5651 5653 5657 5659 5660 5661 5661 5662 5664 5664 5664 5663
5369 5374 5379 5382 5385 5388 5393 5401 5406 5408 5413 5419 5423 5428 5433 5439 5445 5452 5459 5463 5469 5477 5483 5489 5495 5498 5502 5507 5511 5516 5521 5526 5529 5533 5539 5543 5548 5554 5559 5565 5569 5572 5577 5578 5580 5584 5584 5586 5590 5591 5593 5599 5603 5605 5609 5611 5611 5611 5613 5616 5617 5618 5619 5619 5618 5616 5618 5623 5622 5621 5623 5628 5634 5640 5644 5645 5645 5644 5647 5650 5653 5653 5651 5651 5653 5655 5655 5654
5365 5370 5375 5376 5379 5384 5390 5395 5398 5402 5409 5416 5420 5423 5429 5436 5443 5449 5453 5457 5464 5471 5477 5483 5487 5490 5494 5500 5505 5511 5517 5522 5525 5529 5535 5539 5544 5551 5556 5561 5565 5568 5570 5571 5574 5578 5576 5579 5586 5588 5592 5598 5598 5598 5601 5603 5604 5606 5607 5609 5610 5611 5612 5612 5610 5613 5619 5615 5611 5619 5625 5620 5625 5635 5636 5635 5637 5637 5639 5643 5644 5643 5640 5640 5641 5643 5645 5645
5362 5368 5374 5376 5376 5379 5385 5390 5395 5400 5405 5412 5417 5422 5426 5432 5437 5443 5448 5452 5458 5465 5469 5474 5479 5484 5491 5496 5501 5506 5511 5516 5520 5525 5530 5534 5539 5545 5549 5555 5559 5561 5563 5565 5569 5572 5571 5576 5584 5585 5588 5593 5591 5591 5595 5597 5599 5599 5600 5603 5604 5605 5605 5605 5607 5611 5614 5607 5605 5616 5619 5613 5617 5626 5626 5629 5632 5632 5633 5634 5634 5632 5631 5631 5632 5633 5633 5633
5363 5367 5372 5375 5376 5379 5385 5391 5395 5399 5403 5408 5413 5416 5422 5427 5432 5438 5445 5450 5454 5459 5463 5468 5474 5482 5488 5492 5496 5499 5503 5509 5514 5519 5526 5531 5536 5540 5544 5549 5552 5555 5557 5560 5564 5566 5568 5574 5580 5580 5582 5586 5586 5585 5589 5591 5591 5592 5594 5596 5598 5600 5601 5602 5604 5607 5606 5602 5602 5608 5609 5608 5613 5617 5621 5627 5628 5626 5626 5625 5623 5623 5623 5624 5625 5624 5625 5625
5363 5367 5371 5375 5378 5381 5385 5388 5392 5397 5401 5405 5407 5411 5417 5424 5429 5436 5442 5445 5449 5455 5460 5465 5473 5480 5486 5489 5491 5494 5500 5508 5513 5518 5524 5529 5533 5536 5540 5544 5547 5550 5552 5555 5559 5562 5564 5569 5573 5574 5574 5578 5580 5581 5583 5585 5585 5585 5587 5591 5593 5596 5597 5597 5599 5601 5600 5598 5599 5600 5600 5604 5611 5614 5616 5619 5620 5619 5618 5615 5613 5614 5615 5618 5618 5618 5618 5619
5362 5366 5371 5375 5378 5381 5383 5386 5389 5393 5397 5400 5403 5408 5414 5420 5428 5435 5440 5444 5449 5455 5459 5466 5474 5479 5482 5485 5487 5492 5501 5509 5513 5518 5524 5528 5532 5535 5537 5540 5544 5546 5548 5552 5555 5557 5560 5563 5566 5565 5566 5572 5577 5577 5578 5579 5578 5577 5582 5588 5591 5592 5592 5592 5593 5594 5594 5594 5595 5594 5593 5599 5608 5609 5606 5609 5612 5611 5608 5606 5605 5606 5609 5612 5612 5612 5612 5612
5361 5365 5369 5373 5376 5379 5382 5385 5388 5390 5393 5398 5403 5409 5414 5420 5428 5433 5437 5441 5447 5453 5460 5468 5474 5476 5476 5479 5484 5492 5501 5508 5511 5516 5520 5523 5527 5530 5533 5537 5541 5542 5544 5548 5550 5552 5555 5558 5560 5561 5564 5570 5573 5572 5573 5573 5569 5570 5580 5587 5588 5587 5586 5586 5586 5588 5590 5590 5588 5587 5589 5596 5601 5599 5597 5600 5602 5600 5599 5600 5601 5601 5602 5605 5606 5606 5605 5605